ORBCOMM FM119 [+]

Last updated on Thu Sep 07 2017 00:18:45 GMT+0000 (Coordinated Universal Time)

1 41180U 15081B 17249.42454869 .00000012 00000-0 41110-4 0 9998 2 41180 47.0006 233.2507 0001346 10.0096 350.0814 14.54600337 91920

Satellite not in orbit

ORBCOMM FM119 [+]